Location: Artiguedieu
(43.5000°N, 0.5454°E)
Time: 09:25:01
(UTC+00:00)

Vanguard 1 Rocket - Pass Details

Date: 03 August 2021
Orbit: 650 x 4226 km, 34.3° (Epoch: 24 September)

Event Time Altitude Azimuth Distance (km) Brightness Sun altitude
Rises 14:13:32 0° 274° (W) 6,257 12.1 52.2°
Reaches altitude 10° 14:18:54 10° 267° (W) 4,601 11.7 51.4°
Maximum altitude 14:28:21 32° 211° (SSW) 2,153 10.6 49.9°
Drops below altitude 10° 14:34:01 10° 150° (SSE) 2,706 9.9 49.0°
Sets 14:36:21 0° 138° (SE) 3,405 10.3 48.6°
